When you browse on this site, cookies collect data to enhance your experience and personalize the content and advertising you see.
Visit our Privacy Policy to learn more. By continuing to use the site, you agree to this use of cookies and data.
  • In Lithuania
  • List of Countries
  • For 7 days
  • Water Temperature
  • Satellite Maps
  • Weather Map
  • Weather Widgets
  • user-avatar
    Login

    Hourly Weather Kovalevka

    Today, 16 June, Sunday

    Time Temperature Precipitation Wind Pressure Humidity
    00:00 +16°C° 0 mm 1 mps 744 mmHg 84%
    01:00 +15°C° 0 mm 1 mps 745 mmHg 86%
    02:00 +14°C° 0 mm 1 mps 745 mmHg 89%
    03:00 +12°C° 0 mm 0 mps 745 mmHg 91%
    04:00 +14°C° 0 mm 1 mps 745 mmHg 91%
    05:00 +14°C° 0 mm 1 mps 745 mmHg 90%
    06:00 +15°C° 0 mm 1 mps 744 mmHg 90%
    07:00 +16°C° 0 mm 1 mps 745 mmHg 86%
    08:00 +19°C° 0 mm 1 mps 745 mmHg 82%
    09:00 +20°C° 0 mm 1 mps 745 mmHg 78%
    10:00 +20°C° 0.5 mm 1 mps 745 mmHg 78%
    11:00 +21°C° 0.5 mm 1 mps 745 mmHg 77%
    12:00 +20°C° 0.5 mm 2 mps 745 mmHg 77%
    13:00 +21°C° 0.2 mm 2 mps 745 mmHg 75%
    14:00 +21°C° 0.2 mm 3 mps 745 mmHg 73%
    15:00 +22°C° 0.2 mm 3 mps 745 mmHg 70%
    16:00 +22°C° 0.1 mm 3 mps 745 mmHg 71%
    17:00 +22°C° 0.1 mm 3 mps 745 mmHg 73%
    18:00 +21°C° 0.1 mm 2 mps 744 mmHg 74%
    19:00 +20°C° 0 mm 2 mps 745 mmHg 79%
    20:00 +19°C° 0 mm 2 mps 745 mmHg 84%
    21:00 +18°C° 0 mm 1 mps 745 mmHg 89%
    22:00 +18°C° 0 mm 1 mps 745 mmHg 89%
    23:00 +16°C° 0 mm 1 mps 745 mmHg 89%

    Tomorrow, 17 June, Monday

    Time Temperature Precipitation Wind Pressure Humidity
    00:00 +15°C° 0 mm 1 mps 745 mmHg 89%
    01:00 +15°C° 0 mm 1 mps 745 mmHg 90%
    02:00 +15°C° 0 mm 1 mps 746 mmHg 90%
    03:00 +14°C° 0 mm 1 mps 746 mmHg 90%
    04:00 +15°C° 0 mm 1 mps 746 mmHg 89%
    05:00 +15°C° 0 mm 0 mps 746 mmHg 87%
    06:00 +16°C° 0 mm 0 mps 746 mmHg 86%
    07:00 +17°C° 0 mm 0 mps 746 mmHg 82%
    08:00 +20°C° 0 mm 1 mps 746 mmHg 77%
    09:00 +22°C° 0 mm 1 mps 746 mmHg 73%
    10:00 +23°C° 0.1 mm 1 mps 746 mmHg 69%
    11:00 +23°C° 0.1 mm 2 mps 746 mmHg 66%
    12:00 +24°C° 0.1 mm 2 mps 746 mmHg 62%
    13:00 +24°C° 0.1 mm 2 mps 746 mmHg 63%
    14:00 +25°C° 0.1 mm 2 mps 746 mmHg 63%
    15:00 +25°C° 0.1 mm 3 mps 745 mmHg 64%
    16:00 +24°C° 0.1 mm 3 mps 745 mmHg 68%
    17:00 +24°C° 0.1 mm 3 mps 745 mmHg 72%
    18:00 +22°C° 0.1 mm 3 mps 745 mmHg 75%
    19:00 +21°C° 0 mm 3 mps 745 mmHg 79%
    20:00 +19°C° 0 mm 2 mps 745 mmHg 82%
    21:00 +18°C° 0 mm 2 mps 745 mmHg 85%
    22:00 +19°C° 0 mm 1 mps 745 mmHg 84%
    23:00 +19°C° 0 mm 1 mps 745 mmHg 83%

    Day after tomorrow, 18 June, Tuesday

    Time Temperature Precipitation Wind Pressure Humidity
    00:00 +19°C° 0 mm 1 mps 745 mmHg 81%
    01:00 +19°C° 0 mm 1 mps 745 mmHg 80%
    02:00 +18°C° 0 mm 1 mps 745 mmHg 80%
    03:00 +18°C° 0 mm 1 mps 745 mmHg 79%
    04:00 +19°C° 0 mm 1 mps 745 mmHg 80%
    05:00 +19°C° 0 mm 1 mps 745 mmHg 81%
    06:00 +20°C° 0 mm 1 mps 745 mmHg 82%
    07:00 +20°C° 0 mm 1 mps 745 mmHg 81%
    08:00 +20°C° 0 mm 2 mps 745 mmHg 80%
    09:00 +20°C° 0 mm 2 mps 745 mmHg 80%
    10:00 +21°C° 0.1 mm 2 mps 745 mmHg 79%
    11:00 +21°C° 0.1 mm 2 mps 745 mmHg 79%
    12:00 +21°C° 0.1 mm 2 mps 745 mmHg 79%
    13:00 +23°C° 0.2 mm 2 mps 745 mmHg 76%
    14:00 +24°C° 0.2 mm 3 mps 745 mmHg 73%
    15:00 +25°C° 0.2 mm 3 mps 745 mmHg 71%
    16:00 +25°C° 0.1 mm 3 mps 745 mmHg 71%
    17:00 +25°C° 0.1 mm 2 mps 745 mmHg 72%
    18:00 +25°C° 0.1 mm 2 mps 745 mmHg 72%
    19:00 +23°C° 0 mm 2 mps 745 mmHg 75%
    20:00 +22°C° 0 mm 1 mps 745 mmHg 78%
    21:00 +20°C° 0 mm 1 mps 745 mmHg 82%
    22:00 +19°C° 0 mm 1 mps 745 mmHg 81%
    23:00 +19°C° 0 mm 1 mps 746 mmHg 80%

    19 June, Wednesday

    Time Temperature Precipitation Wind Pressure Humidity
    00:00 +17°C° 0 mm 2 mps 746 mmHg 80%
    01:00 +17°C° 0 mm 2 mps 746 mmHg 81%
    02:00 +16°C° 0 mm 2 mps 746 mmHg 83%
    03:00 +16°C° 0 mm 2 mps 746 mmHg 84%
    04:00 +17°C° 0 mm 2 mps 746 mmHg 85%
    05:00 +17°C° 0 mm 2 mps 747 mmHg 86%
    06:00 +18°C° 0 mm 2 mps 747 mmHg 86%
    07:00 +19°C° 0 mm 2 mps 747 mmHg 82%
    08:00 +20°C° 0 mm 3 mps 747 mmHg 77%
    09:00 +22°C° 0 mm 3 mps 747 mmHg 73%
    10:00 +24°C° 0 mm 3 mps 747 mmHg 67%
    11:00 +24°C° 0 mm 3 mps 748 mmHg 62%
    12:00 +25°C° 0 mm 3 mps 748 mmHg 56%
    13:00 +26°C° 0 mm 3 mps 748 mmHg 58%
    14:00 +26°C° 0 mm 3 mps 748 mmHg 59%
    15:00 +26°C° 0 mm 3 mps 748 mmHg 60%
    16:00 +26°C° 0 mm 3 mps 748 mmHg 63%
    17:00 +26°C° 0 mm 3 mps 748 mmHg 67%
    18:00 +25°C° 0 mm 2 mps 748 mmHg 70%
    19:00 +24°C° 0 mm 2 mps 748 mmHg 72%
    20:00 +21°C° 0 mm 2 mps 748 mmHg 73%
    21:00 +19°C° 0 mm 2 mps 748 mmHg 75%
    22:00 +20°C° 0 mm 1 mps 748 mmHg 75%
    23:00 +19°C° 0 mm 1 mps 748 mmHg 76%

    20 June, Thursday

    Time Temperature Precipitation Wind Pressure Humidity
    00:00 +18°C° 0 mm 1 mps 748 mmHg 76%
    01:00 +18°C° 0 mm 1 mps 748 mmHg 77%
    02:00 +18°C° 0 mm 1 mps 749 mmHg 78%
    03:00 +16°C° 0 mm 1 mps 749 mmHg 80%
    04:00 +18°C° 0 mm 1 mps 749 mmHg 80%
    05:00 +19°C° 0 mm 1 mps 749 mmHg 81%
    06:00 +19°C° 0 mm 1 mps 749 mmHg 81%
    07:00 +21°C° 0 mm 1 mps 749 mmHg 76%
    08:00 +23°C° 0 mm 1 mps 749 mmHg 71%
    09:00 +24°C° 0 mm 1 mps 749 mmHg 66%
    10:00 +25°C° 0 mm 1 mps 749 mmHg 61%
    11:00 +26°C° 0 mm 1 mps 749 mmHg 57%
    12:00 +27°C° 0 mm 1 mps 749 mmHg 52%
    13:00 +27°C° 0 mm 1 mps 749 mmHg 51%
    14:00 +28°C° 0 mm 1 mps 749 mmHg 49%
    15:00 +28°C° 0 mm 1 mps 749 mmHg 48%
    16:00 +28°C° 0 mm 1 mps 749 mmHg 52%
    17:00 +27°C° 0 mm 1 mps 749 mmHg 56%
    18:00 +27°C° 0 mm 1 mps 749 mmHg 60%
    19:00 +25°C° 0 mm 1 mps 749 mmHg 62%
    20:00 +23°C° 0 mm 1 mps 749 mmHg 63%
    21:00 +21°C° 0 mm 1 mps 749 mmHg 64%
    22:00 +21°C° 0 mm 1 mps 749 mmHg 66%
    23:00 +20°C° 0 mm 1 mps 749 mmHg 69%

    21 June, Friday

    Time Temperature Precipitation Wind Pressure Humidity
    00:00 +19°C° 0 mm 1 mps 749 mmHg 71%
    01:00 +19°C° 0 mm 1 mps 749 mmHg 73%
    02:00 +19°C° 0 mm 1 mps 749 mmHg 76%
    03:00 +18°C° 0 mm 1 mps 749 mmHg 78%
    04:00 +19°C° 0 mm 1 mps 750 mmHg 79%
    05:00 +20°C° 0 mm 1 mps 750 mmHg 80%
    06:00 +20°C° 0 mm 1 mps 750 mmHg 80%
    07:00 +22°C° 0 mm 1 mps 750 mmHg 76%
    08:00 +23°C° 0 mm 1 mps 750 mmHg 72%
    09:00 +25°C° 0 mm 2 mps 750 mmHg 68%
    10:00 +26°C° 0 mm 2 mps 750 mmHg 64%
    11:00 +27°C° 0 mm 3 mps 750 mmHg 60%
    12:00 +27°C° 0 mm 3 mps 750 mmHg 56%
    13:00 +28°C° 0 mm 3 mps 749 mmHg 56%
    14:00 +28°C° 0 mm 3 mps 749 mmHg 57%
    15:00 +28°C° 0 mm 4 mps 749 mmHg 57%
    16:00 +28°C° 0 mm 3 mps 749 mmHg 62%
    17:00 +27°C° 0 mm 3 mps 748 mmHg 66%
    18:00 +27°C° 0 mm 2 mps 748 mmHg 70%
    19:00 +25°C° 0 mm 2 mps 748 mmHg 73%
    20:00 +24°C° 0 mm 2 mps 748 mmHg 76%
    21:00 +21°C° 0 mm 2 mps 748 mmHg 79%
    22:00 +20°C° 0 mm 2 mps 748 mmHg 81%
    23:00 +20°C° 0 mm 2 mps 748 mmHg 83%
    Show more